Weather History for MMCZ - February, 2013

Change the Weather History Date:

Friday, February 15, 2013

  Actual Average Record
Temperature  
Mean Temperature 76 °F -  
Max Temperature 84 °F 82 °F - (-1)
Min Temperature 68 °F 69 °F - (-1)
Cooling Degree Days 11    
Growing Degree Days 26 (Base 50)    
Moisture  
Dew Point 64 °F    
Average Humidity 72    
Maximum Humidity 83    
Minimum Humidity 51    
Precipitation  
Precipitation 0.65 in - - ()
Sea Level Pressure  
Sea Level Pressure 29.93 in    
Wind  
Wind Speed 2 mph ()    
Max Wind Speed 12 mph    
Max Gust Speed -    
Visibility 7.1 miles    
Events Rain    
Averages and records for this station are not official NWS values.
T = Trace of Precipitation, MM = Missing Value Source: Averaged Metar Reports

Daily Weather History Graph

Daily Weather History Graph

Search for Another Location

Airport or City:

Trip Planner

Search our weather history database for the weather conditions in past years. The results will help you decide how hot, cold, wet, or windy it might be!

Date:

Astronomy

Feb. 15, 2013 Rise Set
Actual Time 6:17 AM CST 5:46 PM CST
Civil Twilight 5:54 AM CST 6:09 PM CST
Nautical Twilight 5:28 AM CST 6:35 PM CST
Astronomical Twilight 5:02 AM CST 7:01 PM CST
Moon 9:43 AM CST (2/15) 10:52 PM CST (2/15)
Length of Visible Light 12h 14m
Length of Day
11h 29m
Waxing Crescent, 30% of the Moon is Illuminated
Feb 15
Waxing Crescent
Feb 17
First Quarter
Feb 25
Full
Mar 4
Last Quarter
Mar 11
New

Hourly Weather History & Observations

Time (CST) Temp. Heat Index Dew Point Humidity Pressure Visibility Wind Dir Wind Speed Gust Speed Precip Events Conditions
12:40 AM 69.8 °F - 64.4 °F 83% 29.91 in 7.0 mi Calm Calm - N/A   Partly Cloudy
1:40 AM 71.6 °F - 64.4 °F 78% 29.90 in 7.0 mi Calm Calm - N/A   Partly Cloudy
2:41 AM 69.8 °F - 62.6 °F 78% 29.91 in 7.0 mi Calm Calm - N/A   Partly Cloudy
3:41 AM 68.0 °F - 62.6 °F 83% 29.90 in 7.0 mi Calm Calm - N/A   Partly Cloudy
4:41 AM 68.0 °F - 62.6 °F 83% 29.91 in 7.0 mi Calm Calm - N/A   Partly Cloudy
5:46 AM 68.0 °F - 62.6 °F 83% 29.89 in 7.0 mi East 3.5 mph - N/A   Mostly Cloudy
6:47 AM 69.8 °F - 62.6 °F 78% 29.94 in 7.0 mi Calm Calm - N/A   Mostly Cloudy
7:48 AM 71.6 °F - 66.2 °F 83% 29.95 in 6.0 mi Calm Calm - N/A   Mostly Cloudy
8:43 AM 73.4 °F - 68.0 °F 83% 29.99 in 6.0 mi Calm Calm - N/A   Mostly Cloudy
9:42 AM 75.2 °F - 66.2 °F 73% 29.98 in 6.0 mi NE 4.6 mph - N/A   Overcast
10:43 AM 75.2 °F - 68.0 °F 78% 29.97 in 8.0 mi SSE 4.6 mph - N/A   Overcast
11:40 AM 78.8 °F - 68.0 °F 69% 29.93 in 8.0 mi SSE 4.6 mph - N/A   Mostly Cloudy
12:42 PM 84.2 °F 86.6 °F 66.2 °F 55% 29.93 in 8.0 mi West 4.6 mph - N/A   Mostly Cloudy
1:43 PM 78.8 °F - 66.2 °F 65% 29.91 in 8.0 mi West 6.9 mph - N/A   Mostly Cloudy
2:47 PM 78.8 °F - 68.0 °F 69% 29.91 in 8.0 mi Calm Calm - N/A   Scattered Clouds
3:52 PM 82.4 °F 83.9 °F 64.4 °F 54% 29.88 in 8.0 mi SSE 3.5 mph - N/A   Scattered Clouds
4:49 PM 80.6 °F 81.5 °F 60.8 °F 51% 29.89 in 8.0 mi SSE 4.6 mph - N/A   Scattered Clouds
5:40 PM 77.0 °F - 59.0 °F 54% 29.86 in 8.0 mi SSE 3.5 mph - N/A   Scattered Clouds
6:51 PM 73.4 °F - 60.8 °F 65% 29.91 in 7.0 mi Calm Calm - N/A   Scattered Clouds
7:45 PM 69.8 °F - 62.6 °F 78% 29.93 in 7.0 mi Calm Calm - N/A   Partly Cloudy
8:40 PM 69.8 °F - 62.6 °F 78% 29.96 in 7.0 mi Calm Calm - N/A   Clear
9:49 PM 73.4 °F - 66.2 °F 78% 29.96 in 7.0 mi NNW 10.4 mph - N/A   Clear
10:41 PM 69.8 °F - 59.0 °F 68% 29.97 in 5.0 mi NW 11.5 mph - N/A Rain Light Rain
11:45 PM 69.8 °F - 55.4 °F 60% 29.91 in 6.0 mi Calm Calm - N/A Rain Light Rain